Station RCKM4 - 9076024 - Rock Cut, MI Image indicating link to RSS feed of recent meteorological observations for station RCKM4


Conditions at RCKM4 as of
(9:00 am EDT)
1300 GMT on 07/15/2024:
     

Click on the graph icon in the table below to see a time series plot of the last five days of that observation.

5-day plot - Wind Direction Wind Direction (WDIR):ESE ( 120 deg true )
5-day plot - Wind Speed Wind Speed (WSPD): 2.9 kts
5-day plot - Wind Gust Wind Gust (GST): 2.9 kts
5-day plot - Atmospheric Pressure Atmospheric Pressure (PRES):29.75 in
5-day plot - Pressure Tendency Pressure Tendency (PTDY):+0.00 in ( Steady )
5-day plot - Water Temperature Water Temperature (WTMP): 66.7 °F
5-day plot - Wind Speed at 10 Meters Wind Speed at 10 meters (WSPD10M): 3.9 kts
5-day plot - Wind Speed at 20 Meters Wind Speed at 20 meters (WSPD20M): 3.9 kts
5-day plot -  Wind Speed, Wind Gust and Atmospheric Pressure Combined plot of Wind Speed, Gust, and Air Pressure
NOS Water Level Observation Network Water Level
Previous observations
TIME
(EDT)
5-day plot - Wind Direction
WDIR
 
5-day plot - Wind Speed
WSPD
kts
5-day plot - Wind Gust
GST
kts
5-day plot - Wave Height
WVHT
ft
5-day plot - Dominant Wave Period
DPD
sec
5-day plot - Average Wave Period
APD
sec
5-day plot - Mean Wave Direction
MWD
 
5-day plot - Atmospheric Pressure
PRES
in
5-day plot - Pressure Tendency
PTDY
in
5-day plot - Air Temperature
ATMP
°F
5-day plot - Water Temperature
WTMP
°F
5-day plot - Dew Point
DEWP
°F
5-day plot - Salinity
SAL
psu
5-day plot - Visibility
VIS
nmi
5-day plot - Tide (above MLLW)
TIDE
ft
2024-07-15 08:54 amESE 1.9 1.9----29.75-- 66.7----
2024-07-15 08:48 am E 1.9 1.9----29.75-- 66.7----
2024-07-15 08:42 am- 0.0 1.0----29.75-- 66.7----
2024-07-15 08:36 am- 0.0 1.9----29.74-- 66.7----
2024-07-15 08:30 am E 1.0 1.9----29.74-- 66.7----
2024-07-15 08:24 am E 1.0 1.9----29.75-- 66.7----
2024-07-15 08:18 am NE 1.0 1.0----29.75-- 66.7----
2024-07-15 08:12 am- 0.0 1.0----29.75-- 66.7----
2024-07-15 08:06 am NE 1.9 1.9----29.75-- 66.7----
2024-07-15 08:00 amENE 1.0 1.9----29.75+0.01- 66.7----
2024-07-15 07:54 amENE 1.0 1.9----29.74-- 66.7----
2024-07-15 07:48 am NE 1.0 1.0----29.74-- 66.7----
2024-07-15 07:42 am- 0.0 1.9----29.75-- 66.7----
2024-07-15 07:36 am W 1.0 1.9----29.75-- 66.7----
2024-07-15 07:30 am W 1.0 2.9----29.75-- 66.7----
2024-07-15 07:24 am SW 1.9 2.9----29.74-- 66.7----
2024-07-15 07:18 am SW 1.0 1.9----29.74-- 66.7----
2024-07-15 07:12 am W 1.0 1.9----29.74-- 66.7----
2024-07-15 07:06 amWNW 1.0 1.9----29.75-- 66.7----
2024-07-15 07:00 am- 0.0 1.9----29.75+0.01- 66.7----
2024-07-15 06:54 am NW 1.9 2.9----29.75-- 66.7----
2024-07-15 06:48 am NW 1.9 2.9----29.75-- 66.7----
2024-07-15 06:42 amWNW 1.9 1.9----29.75-- 66.7----
2024-07-15 06:36 am NW 1.9 2.9----29.75-- 66.7----
2024-07-15 06:30 am- 0.0 1.0----29.75-- 66.7----
2024-07-15 06:24 am- 0.0 1.9----29.75-- 66.7----
2024-07-15 06:18 am NW 1.9 1.9----29.75-- 66.7----
2024-07-15 06:12 amNNW 1.9 1.9----29.74-- 66.7----
2024-07-15 06:06 am NW 1.9 1.9----29.74-- 66.7----
2024-07-15 06:00 am- 0.0 1.9----29.75+0.00- 66.7----
2024-07-15 05:54 amSSE 1.9 2.9----29.75-- 66.7----
2024-07-15 05:48 am SE 1.9 2.9----29.74-- 66.7----
2024-07-15 05:42 amSSE 2.9 2.9----29.74-- 66.7----
2024-07-15 05:36 am SE 1.9 2.9----29.74-- 66.7----
2024-07-15 05:30 am- 0.0 1.0----29.74-- 66.7----
2024-07-15 05:24 amSSE 1.0 4.1----29.74-- 66.7----
2024-07-15 05:18 am SE 2.9 4.1----29.73-- 66.7----
2024-07-15 05:12 am SE 2.9 4.1----29.74-- 66.7----
2024-07-15 05:06 am SE 1.0 1.9----29.74-- 66.7----
2024-07-15 05:00 am- 0.0 0.0----29.73-0.02- 66.7----
2024-07-15 04:54 am- 0.0 1.0----29.73-- 66.7----
2024-07-15 04:48 am- 0.0 1.0----29.73-- 66.7----
2024-07-15 04:42 am- 0.0 1.0----29.73-- 66.7----
2024-07-15 04:36 amWNW 1.0 1.0----29.73-- 66.7----
2024-07-15 04:30 am- 0.0 0.0----29.73-- 66.7----
2024-07-15 04:24 am- 0.0 0.0----29.73-- 66.7----
2024-07-15 04:18 am- 0.0 0.0----29.73-- 66.7----
2024-07-15 04:12 am- 0.0 0.0----29.73-- 66.7----
2024-07-15 04:06 am- 0.0 1.0----29.73-- 66.7----
2024-07-15 04:00 am S 1.0 1.0----29.73-0.03- 66.7----
2024-07-15 03:54 am- 0.0 1.9----29.73-- 66.7----
2024-07-15 03:48 am NE 1.9 1.9----29.74-- 66.7----
2024-07-15 03:42 am- 0.0 1.9----29.74-- 66.7----
2024-07-15 03:36 am- 0.0 1.0----29.74-- 66.7----
2024-07-15 03:30 am- 0.0 2.9----29.75-- 66.7----
2024-07-15 03:24 am SW 1.9 4.1----29.75-- 66.7----
2024-07-15 03:18 amWSW 1.9 5.1----29.75-- 66.7----
2024-07-15 03:12 am SW 2.9 5.1----29.75-- 66.7----
2024-07-15 03:06 amSSW 1.0 2.9----29.75-- 66.7----
2024-07-15 03:00 am S 1.0 1.9----29.74-0.01- 66.7----
2024-07-15 02:54 amWSW 1.9 2.9----29.75-- 66.7----
2024-07-15 02:48 amWSW 1.0 1.9----29.74-- 66.7----
2024-07-15 02:42 am SW 1.0 2.9----29.74-- 66.7----
2024-07-15 02:36 am- 0.0 1.9----29.75-- 66.7----
2024-07-15 02:30 am- 0.0 1.9----29.75-- 66.7----
2024-07-15 02:24 am SE 1.0 4.1----29.74-- 66.7----
2024-07-15 02:18 am S 1.9 2.9----29.75-- 66.7----
2024-07-15 02:12 am- 0.0 2.9----29.75-- 66.7----
2024-07-15 02:06 amWNW 2.9 5.1----29.75-- 66.7----
2024-07-15 02:00 am NW 1.0 2.9----29.75-0.01- 66.7----
2024-07-15 01:54 amSSE 1.9 2.9----29.75-- 66.7----
2024-07-15 01:48 am S 1.0 4.1----29.75-- 66.7----
2024-07-15 01:42 am S 1.9 2.9----29.75-- 66.7----
2024-07-15 01:36 amSSW 1.0 4.1----29.76-- 66.7----
2024-07-15 01:30 amSSW 1.0 2.9----29.76-- 66.7----
2024-07-15 01:24 am S 1.9 4.1----29.76-- 66.7----
2024-07-15 01:18 am S 2.9 4.1----29.75-- 66.7----
2024-07-15 01:12 am S 1.9 4.1----29.75-- 66.7----
2024-07-15 01:06 am S 1.0 4.1----29.76-- 66.7----
2024-07-15 01:00 am S 2.9 4.1----29.76+0.00- 66.7----
2024-07-15 12:54 am S 1.9 5.1----29.75-- 66.7----
2024-07-15 12:48 amSSE 1.9 4.1----29.76-- 66.7----
2024-07-15 12:42 amSSE 1.9 2.9----29.76-- 66.7----
2024-07-15 12:36 amSSE 1.9 2.9----29.76-- 66.7----
2024-07-15 12:30 amSSE 1.0 2.9----29.76-- 66.7----
2024-07-15 12:24 amSSE 1.0 1.9----29.76-- 66.7----
2024-07-15 12:18 am S 1.9 1.9----29.76-- 66.7----
2024-07-15 12:12 am- 0.0 1.0----29.76-- 66.7----
2024-07-15 12:06 am- 0.0 1.9----29.76-- 66.7----
2024-07-15 12:00 am- 0.0 1.9----29.76-0.02- 66.7----
2024-07-14 11:54 pmSSE 1.9 2.9----29.75-- 66.7----
2024-07-14 11:48 pm S 1.9 2.9----29.76-- 66.7----
2024-07-14 11:42 pm S 1.9 2.9----29.76-- 66.7----
2024-07-14 11:36 pm S 1.0 1.9----29.76-- 66.7----
2024-07-14 11:30 pm- 0.0 1.9----29.76-- 66.7----
2024-07-14 11:24 pm S 1.9 1.9----29.76-- 66.7----
2024-07-14 11:18 pm- 0.0 1.9----29.76-- 66.7----
2024-07-14 11:12 pmSSW 1.9 2.9----29.76-- 66.7----
2024-07-14 11:06 pm S 2.9 2.9----29.77-- 66.7----
2024-07-14 11:00 pmESE 1.9 2.9----29.76-0.02------
2024-07-14 10:54 pmENE 1.9 2.9----29.77-------
2024-07-14 10:48 pm-------29.78-- 66.7----
2024-07-14 10:42 pm-------29.78-- 66.7----
2024-07-14 10:36 pm-------29.78-- 66.7----
2024-07-14 10:30 pm SW 1.9 2.9----29.78-- 66.7----
2024-07-14 10:24 pm SW 1.0 1.9----29.78-- 66.7----
2024-07-14 10:18 pm W 1.9 2.9----29.78-- 66.6----
2024-07-14 10:12 pm W 1.9 1.9----29.78-- 66.6----
2024-07-14 10:06 pm- 0.0 1.0----29.77-- 66.6----
2024-07-14 10:00 pm- 0.0 1.9----29.76-0.01- 66.6----
2024-07-14 09:54 pm SW 1.0 1.9----29.76-- 66.6----
2024-07-14 09:48 pm- 0.0 0.0----29.77-- 66.6----
2024-07-14 09:42 pm- 0.0 0.0----29.77-- 66.6----
2024-07-14 09:36 pm- 0.0 0.0----29.77-- 66.6----
2024-07-14 09:30 pm- 0.0 0.0----29.77-- 66.6----
2024-07-14 09:24 pm- 0.0 1.0----29.78-- 66.6----
2024-07-14 09:18 pm- 0.0 1.0----29.78-- 66.6----
2024-07-14 09:12 pm- 0.0 2.9----29.78-- 66.6----
2024-07-14 09:06 pmSSW 1.9 2.9----29.78-- 66.6----
2024-07-14 09:00 pm S 1.9 2.9----29.78+0.00- 66.6----
2024-07-14 08:54 pm S 1.0 1.9----29.78-- 66.6----
2024-07-14 08:48 pm- 0.0 1.0----29.78-- 66.6----
2024-07-14 08:42 pm- 0.0 1.0----29.78-- 66.6----
2024-07-14 08:36 pmSSW 1.0 2.9----29.78-- 66.6----
2024-07-14 08:30 pm SW 1.0 2.9----29.79-- 66.6----
2024-07-14 08:24 pm SW 1.0 2.9----29.78-- 66.4----
2024-07-14 08:18 pm S 1.9 4.1----29.78-- 66.4----
2024-07-14 08:12 pm S 1.9 4.1----29.78-- 66.4----
2024-07-14 08:06 pm S 1.9 5.1----29.78-- 66.4----
2024-07-14 08:00 pm S 2.9 6.0----29.78-0.01- 66.4----
2024-07-14 07:54 pm S 2.9 4.1----29.78-- 66.4----
2024-07-14 07:48 pmSSW 5.1 7.0----29.79-- 66.4----
2024-07-14 07:42 pm S 4.1 5.1----29.79-- 66.4----
2024-07-14 07:36 pmSSW 2.9 7.0----29.79-- 66.4----
2024-07-14 07:30 pm S 4.1 8.9----29.79-- 66.4----
2024-07-14 07:24 pm S 5.1 8.0----29.79-- 66.4----
2024-07-14 07:18 pm SW 2.9 5.1----29.79-- 66.4----
2024-07-14 07:12 pm SW 4.1 6.0----29.78-- 66.4----
2024-07-14 07:06 pmSSW 1.9 4.1----29.78-- 66.4----
2024-07-14 07:00 pm S 1.9 7.0----29.78-0.02- 66.4----
2024-07-14 06:54 pm S 4.1 6.0----29.78-- 66.4----
2024-07-14 06:48 pm S 2.9 6.0----29.78-- 66.4----
2024-07-14 06:42 pmSSW 5.1 7.0----29.78-- 66.4----
2024-07-14 06:36 pm S 2.9 6.0----29.78-- 66.4----
2024-07-14 06:30 pm SW 5.1 7.0----29.78-- 66.4----
2024-07-14 06:24 pm S 5.1 7.0----29.78-- 66.4----
2024-07-14 06:18 pmSSE 6.0 9.9----29.78-- 66.4----
2024-07-14 06:12 pmSSE 4.1 7.0----29.78-- 66.4----
2024-07-14 06:06 pmSSE 6.0 8.9----29.78-- 66.4----
2024-07-14 06:00 pm SE 5.1 8.9----29.78-0.02- 66.4----
2024-07-14 05:54 pmSSE 5.1 8.0----29.78-- 66.4----
2024-07-14 05:48 pm SE 6.0 8.9----29.78-- 66.4----
2024-07-14 05:42 pmSSE 6.0 8.9----29.78-- 66.4----
2024-07-14 05:36 pm SE 6.0 8.0----29.79-- 66.4----
2024-07-14 05:30 pm SE 7.0 9.9----29.79-- 66.4----
2024-07-14 05:24 pmSSE 4.1 6.0----29.78-- 66.4----
2024-07-14 05:18 pm SE 5.1 6.0----29.79-- 66.4----
2024-07-14 05:12 pmSSE 5.1 8.0----29.79-- 66.4----
2024-07-14 05:06 pm- 0.0 4.1----29.79-- 66.4----
2024-07-14 05:00 pmSSE 1.9 7.0----29.79-0.02- 66.4----
2024-07-14 04:54 pmWSW 4.1 7.0----29.79-- 66.4----
2024-07-14 04:48 pmSSE 1.9 6.0----29.79-- 66.4----
2024-07-14 04:42 pmSSE 5.1 8.0----29.79-- 66.4----
2024-07-14 04:36 pmSSW 5.1 8.0----29.80-- 66.4----
2024-07-14 04:30 pm S 4.1 8.9----29.79-- 66.4----
2024-07-14 04:24 pm S 1.9 8.9----29.80-- 66.4----
2024-07-14 04:18 pmSSW 2.9 8.0----29.80-- 66.4----
2024-07-14 04:12 pm S 2.9 8.0----29.80-- 66.4----
2024-07-14 04:06 pmSSW 6.0 9.9----29.80-- 66.4----
2024-07-14 04:00 pm S 6.0 8.9----29.80-- 66.4----
2024-07-14 03:54 pm SW 5.1 7.0----29.80-- 66.4----
2024-07-14 03:48 pmSSW 5.1 8.0----29.80-- 66.4----
2024-07-14 03:42 pmWSW 4.1 8.0----29.80-- 66.2----
2024-07-14 03:36 pm SW 5.1 7.0----29.80-- 66.2----
2024-07-14 03:30 pmWSW 2.9 6.0----29.80-- 66.2----
2024-07-14 03:24 pmSSW 2.9 8.0----29.80-- 66.2----
2024-07-14 03:18 pmSSW 6.0 11.1----29.80-- 66.2----
2024-07-14 03:12 pmSSW 5.1 8.0----29.80-- 66.2----
2024-07-14 03:06 pmSSW 4.1 7.0----29.80-- 66.2----
2024-07-14 03:00 pm SW 4.1 7.0----29.80-0.01- 66.2----
2024-07-14 02:54 pm SW 5.1 7.0----29.80-- 66.2----
2024-07-14 02:48 pmWSW 2.9 7.0----29.81-- 66.2----
2024-07-14 02:42 pm SW 5.1 8.0----29.81-- 66.2----
2024-07-14 02:36 pm SW 2.9 6.0----29.81-- 66.2----
2024-07-14 02:30 pmSSW 5.1 8.0----29.81-- 66.2----
2024-07-14 02:24 pmSSW 5.1 7.0----29.81-- 66.2----
2024-07-14 02:18 pm SW 4.1 8.0----29.82-------
2024-07-14 02:12 pmWSW 5.1 8.0----29.82-------
2024-07-14 02:06 pm SW 4.1 8.9----29.82-------
2024-07-14 02:00 pmSSE 2.9 4.1----29.82+0.01- 66.2----
2024-07-14 01:54 pm S 2.9 4.1----29.82-- 66.2----
2024-07-14 01:48 pm S 1.9 5.1----29.82-- 66.2----
2024-07-14 01:42 pmSSE 2.9 5.1----29.81-- 66.2----
2024-07-14 01:36 pm SE 1.9 4.1----29.82-- 66.2----
2024-07-14 01:30 pm E 2.9 4.1----29.82-- 66.2----
2024-07-14 01:24 pm E 1.9 4.1----29.81-- 66.2----
2024-07-14 01:18 pmSSW 2.9 4.1----29.82-- 66.2----
2024-07-14 01:12 pmSSW 1.9 4.1----29.82-- 66.2----
2024-07-14 01:06 pmSSW 1.0 4.1----29.82-- 66.2----
2024-07-14 01:00 pm- 0.0 2.9------- 66.2----
2024-07-14 12:54 pmSSE 1.0 2.9------- 66.2----
2024-07-14 12:48 pm SE 1.0 1.9----29.83-- 66.2----
2024-07-14 12:42 pm SE 1.9 2.9----29.82-- 66.2----
2024-07-14 12:36 pm SE 2.9 4.1----29.82-- 66.2----
2024-07-14 12:30 pm SE 1.9 2.9----29.82-- 66.2----
2024-07-14 12:24 pm SE 2.9 4.1----29.82-- 66.2----
2024-07-14 12:18 pm-------29.82-- 66.2----
2024-07-14 12:12 pm-------29.81-- 66.2----
2024-07-14 12:06 pm-------29.81-- 66.2----
2024-07-14 12:00 pm W 1.9 4.1----29.81-0.05- 66.2----
2024-07-14 11:54 amNNW 1.0 1.9----29.81-- 66.2----
2024-07-14 11:48 am NE 1.0 2.9----29.80-- 66.2----
2024-07-14 11:42 amNNW 2.9 4.1----29.80-- 66.2----
2024-07-14 11:36 amWNW 4.1 8.0----29.81-- 66.2----
2024-07-14 11:30 am W 1.9 6.0----29.81-- 66.2----
2024-07-14 11:24 am W 2.9 5.1----29.81-- 66.2----
2024-07-14 11:18 am W 4.1 7.0----29.80-- 66.2----
2024-07-14 11:12 am SW 1.9 5.1----29.80-- 66.2----
2024-07-14 11:06 am S 1.0 4.1----29.81-- 66.2----
2024-07-14 11:00 amWSW 1.9 6.0----29.81-0.04- 66.2----
2024-07-14 10:54 am S 2.9 5.1----29.81-- 66.2----
2024-07-14 10:48 am W 2.9 5.1------- 66.2----
2024-07-14 10:42 amWSW 4.1 8.0------- 66.2----
2024-07-14 10:36 amWSW 4.1 7.0------- 66.2----
2024-07-14 10:30 amWSW 4.1 5.1----29.83-- 66.2----
2024-07-14 10:24 am SW 1.9 5.1----29.83-- 66.2----
2024-07-14 10:18 am SW 2.9 6.0----29.83-- 66.2----
2024-07-14 10:12 amSSW 4.1 5.1----29.83-- 66.2----
2024-07-14 10:06 am S 1.9 2.9----29.83-- 66.2----
2024-07-14 10:00 am-------29.83-0.02- 66.2----
2024-07-14 09:54 am-------29.84-- 66.2----
2024-07-14 09:48 am SE 4.1 5.1----29.84-- 66.2----
2024-07-14 09:42 am SE 1.9 5.1----29.85-- 66.2----
2024-07-14 09:36 am SE 4.1 6.0----29.85-- 66.2----
2024-07-14 09:30 am SE 6.0 7.0----29.85-- 66.2----
2024-07-14 09:24 am SE 5.1 6.0----29.85-- 66.2----
2024-07-14 09:18 am SE 4.1 5.1----29.86-- 66.2----
2024-07-14 09:12 am SE 2.9 5.1----29.86-- 66.2----
2024-07-14 09:06 amSSE 1.9 4.1----29.86-- 66.2----
2024-07-14 09:00 amSSE 4.1 7.0----29.86-0.01- 66.2----
2024-07-14 08:54 amSSE 5.1 8.9----29.86-- 66.2----